Theta_e
304 311 318 319 316 311 315 315 310 316 316 313 313 313 312 313 315 315 306 305 305 307 309 309 312 322 332 334 335 339 340 342 340 338 335 332 330 321 321 323 327 335 338 336 331 332 333 333 337
304 312 317 317 312 312 310 310 310 309 311 311 311 311 311 310 309 307 307 305 304 305 306 308 308 311 320 330 333 335 338 340 341 340 337 334 331 324 323 330 329 327 333 330 330 331 335 336 337
308 314 313 309 304 309 309 309 308 308 309 309 308 308 309 306 306 305 304 304 304 305 306 306 306 306 309 320 328 333 334 338 340 340 339 337 334 330 324 330 325 330 328 338 336 334 335 336 336
310 310 306 306 309 310 306 307 307 306 308 308 307 304 306 305 305 304 303 304 304 305 305 305 305 305 305 307 318 327 331 334 336 340 339 338 336 333 328 328 327 335 338 338 339 339 337 335 332
307 308 301 303 304 307 305 306 306 305 304 306 306 303 304 304 304 303 303 303 303 304 304 304 304 304 304 305 307 315 325 330 334 337 338 338 337 335 332 330 331 327 335 337 339 338 337 332 328
304 304 301 304 305 305 303 304 305 304 304 305 305 303 303 303 303 303 303 303 303 303 303 303 304 304 304 304 305 307 311 322 328 333 335 336 336 337 333 333 333 333 328 334 335 335 335 332 331
302 298 301 303 305 305 304 304 303 303 303 304 304 302 302 302 302 302 302 302 303 303 303 303 303 303 303 302 303 304 306 309 317 324 332 334 335 336 336 334 334 335 335 329 329 332 334 334 333
304 299 305 304 303 305 303 304 304 304 303 304 304 301 301 302 303 303 303 302 302 302 302 301 300 300 300 300 301 302 304 305 307 314 319 332 333 333 335 335 334 334 336 336 333 335 335 335 334
304 300 301 305 304 304 303 303 304 304 304 304 304 303 303 303 302 302 302 302 302 301 301 300 299 298 298 299 299 300 302 303 304 305 311 315 330 334 335 335 335 334 334 336 337 336 335 335 334
301 300 303 303 302 302 302 303 303 302 303 303 302 302 302 302 302 302 302 302 301 300 299 298 298 297 297 297 298 299 299 301 303 304 304 310 315 329 334 333 334 335 334 334 335 337 337 335 334
303 303 303 303 303 303 302 301 302 301 299 301 302 301 301 300 300 300 300 299 298 298 297 297 297 297 297 297 297 298 298 299 301 303 303 304 309 314 329 333 334 334 334 334 333 334 336 336 334
302 303 303 303 303 302 301 301 301 301 301 302 302 302 302 300 300 300 299 298 297 297 296 296 296 297 297 297 297 297 297 298 298 300 303 302 305 307 317 327 331 334 333 333 334 333 334 335 334
302 302 303 303 302 302 302 300 300 301 302 302 302 301 301 300 299 298 297 297 297 297 296 296 296 296 297 297 297 296 297 297 298 298 301 302 303 305 306 314 325 331 332 333 333 333 333 333 335
302 302 302 303 302 302 301 300 301 302 302 302 301 301 300 299 299 298 297 297 296 296 296 296 296 296 296 296 296 296 296 297 297 298 298 301 302 303 304 306 312 324 330 332 333 333 333 333 333
302 301 301 302 302 301 301 300 298 302 301 300 300 301 300 299 299 298 298 297 296 295 294 295 295 295 295 296 296 296 296 296 296 297 297 299 301 302 304 305 304 317 329 329 331 333 332 333 333
302 302 303 303 301 300 301 301 300 302 300 300 300 300 299 299 298 297 296 296 295 294 294 294 294 294 294 295 296 296 296 296 296 296 297 297 300 301 302 306 304 308 327 328 328 332 333 333 333
302 303 303 303 300 299 299 300 299 301 299 299 300 300 299 297 296 295 295 294 294 293 293 293 293 293 293 294 295 296 296 295 295 296 296 297 299 301 301 303 307 305 319 326 327 328 327 331 330
305 304 302 301 301 300 299 299 299 300 299 298 299 300 298 297 295 293 293 293 293 293 292 290 290 291 292 294 294 295 295 295 295 296 296 298 299 300 302 302 304 303 305 324 326 322 324 324 325
302 302 301 299 300 300 299 298 298 299 298 297 297 298 298 296 294 292 292 292 291 291 291 291 290 290 290 292 293 293 294 294 295 296 297 299 299 300 303 302 304 304 303 309 324 321 320 320 321
301 301 300 299 299 299 298 298 299 296 297 297 298 298 296 293 292 292 291 291 291 291 291 290 290 290 290 290 290 291 292 293 294 295 298 300 302 301 305 303 302 303 305 303 318 323 323 322 321
301 301 300 301 298 297 296 297 294 297 296 295 296 296 294 293 292 292 291 290 290 289 289 288 288 289 289 290 290 291 292 293 292 294 297 301 303 304 306 305 303 302 305 309 309 318 322 323 321
301 300 299 299 295 297 296 297 297 298 296 295 295 293 292 291 290 290 291 289 289 287 286 287 287 287 288 289 289 289 291 292 293 293 296 301 301 305 306 306 306 305 305 311 309 309 310 321 321
300 298 298 298 293 290 296 290 297 296 297 295 294 292 291 290 291 291 288 286 286 286 286 285 286 287 288 288 288 289 290 291 293 294 296 298 300 303 306 307 307 306 308 307 313 310 311 309 317
298 299 298 296 296 291 293 295 299 295 293 295 290 290 291 293 290 287 286 286 285 285 284 284 285 286 287 288 288 289 290 291 292 293 295 295 299 300 305 307 308 308 306 309 310 314 307 312 313
297 298 293 293 290 296 295 296 299 293 291 290 289 291 292 290 288 286 285 285 284 283 284 284 285 285 286 287 287 288 289 290 291 293 294 295 297 300 304 305 306 306 303 302 304 311 313 309 309
299 295 295 293 293 294 296 294 298 289 288 291 290 290 290 288 286 285 284 283 282 282 283 283 284 284 285 286 287 287 288 289 291 292 294 294 295 298 304 305 303 302 302 301 301 305 313 308 312
299 300 295 289 286 291 292 295 297 293 288 287 290 290 289 288 286 284 283 282 281 282 282 283 284 283 284 285 286 287 288 289 291 293 294 294 297 300 302 301 301 302 301 301 301 301 301 301 307
297 296 297 291 293 293 294 293 297 293 289 286 286 288 289 287 284 283 282 282 281 281 282 283 283 283 283 285 286 286 288 289 291 293 295 294 295 297 300 301 302 302 303 302 302 303 303 303 306
295 295 296 293 291 291 296 295 288 290 284 286 287 288 287 285 283 282 282 281 281 281 282 283 283 283 283 284 285 286 288 289 291 293 294 295 296 297 299 301 301 303 302 305 306 304 304 306 306
294 289 291 293 291 286 292 297 282 281 278 282 286 287 285 283 282 281 281 281 281 281 281 282 282 283 283 284 285 286 287 289 289 290 293 295 297 298 298 298 299 302 305 306 307 307 307 307 307
Wind_Speed
4 10 11 5 3 4 3 4 4 2 2 2 5 8 9 6 2 2 11 5 6 9 9 9 10 10 6 4 6 6 5 6 6 7 8 8 8 10 14 17 21 22 20 19 20 21 19 19 19
6 10 6 3 4 3 4 2 3 1 4 5 7 7 5 3 5 7 4 3 7 9 12 12 12 11 10 7 6 7 8 8 8 8 9 11 10 11 14 17 19 21 23 21 22 21 20 19 18
8 8 3 4 3 4 4 3 5 3 3 2 4 8 4 5 6 7 4 1 6 10 14 15 15 13 12 11 9 7 11 10 10 11 11 13 13 12 14 17 18 19 22 23 24 23 21 20 19
5 3 3 4 5 4 5 5 4 4 4 3 6 5 5 4 6 7 5 6 9 11 14 17 17 17 15 13 11 10 8 13 12 13 14 14 15 15 16 18 20 21 22 23 24 24 23 20 19
5 3 3 0 4 2 2 4 3 3 4 4 3 6 8 6 6 5 6 8 9 12 17 19 20 19 17 16 15 13 12 12 14 14 16 17 18 19 19 19 22 23 23 24 25 25 23 20 19
3 2 3 3 4 3 1 1 3 2 3 3 1 8 6 8 9 8 4 9 12 14 19 22 22 21 18 17 17 16 15 14 14 15 15 19 20 21 22 23 24 25 28 26 25 24 25 23 21
5 4 4 4 3 4 5 3 3 4 3 2 4 5 5 10 7 6 7 11 14 17 21 24 26 29 29 26 23 20 18 18 16 16 16 17 22 23 25 26 26 27 29 31 30 28 27 25 23
2 3 2 4 4 4 4 3 4 3 3 4 3 5 5 13 11 11 14 17 18 20 23 25 24 24 24 25 23 22 21 20 19 18 16 18 21 22 26 29 30 29 30 30 31 29 27 26 23
2 3 3 3 5 2 1 1 2 1 4 6 5 7 7 11 12 15 17 18 20 22 24 24 24 21 20 21 23 24 22 22 21 19 19 18 18 20 24 28 31 33 32 32 33 32 29 27 25
4 3 7 1 1 3 2 1 2 3 6 7 6 6 10 13 15 17 20 22 24 25 24 22 22 22 22 21 20 21 24 24 23 22 21 20 20 21 21 27 31 33 34 34 35 35 32 31 30
4 5 3 2 4 2 2 3 4 3 6 15 14 15 13 12 13 16 18 20 21 20 19 21 22 24 25 25 24 23 21 24 25 24 23 22 21 21 23 22 29 33 33 34 37 37 36 37 38
3 5 6 5 5 3 3 2 5 14 10 11 14 14 14 13 14 17 19 20 20 21 21 20 22 26 28 28 25 24 25 23 24 26 25 24 24 22 21 24 23 32 34 35 37 39 39 39 44
3 3 4 5 5 7 6 9 8 16 17 16 13 16 14 14 15 16 18 20 22 23 22 24 24 28 30 31 28 26 24 24 24 25 26 26 26 25 22 21 23 21 32 36 37 38 38 38 39
1 5 12 11 10 7 3 3 4 6 6 12 17 17 15 14 15 18 21 22 24 23 23 23 28 31 32 32 30 28 27 25 25 26 25 28 27 27 24 22 19 23 20 33 36 39 40 39 38
2 5 7 7 7 3 2 8 10 20 13 12 16 18 19 18 19 22 24 26 25 24 26 30 30 29 29 30 30 29 27 27 27 26 27 28 29 28 28 23 19 19 19 33 38 38 40 41 39
2 1 3 1 7 2 4 8 5 9 15 23 22 21 20 19 21 21 21 22 22 24 27 29 28 28 28 28 28 29 29 27 29 27 26 29 29 29 29 28 21 15 19 23 30 45 39 44 38
1 4 4 6 8 3 5 8 5 11 17 21 22 23 22 18 20 18 18 20 22 25 27 27 27 26 26 26 27 27 28 28 29 27 26 28 30 30 30 31 27 18 23 19 23 20 18 46 43
4 4 5 5 2 4 7 18 15 21 23 27 28 25 23 21 19 15 14 18 22 25 26 27 26 25 23 24 26 26 26 27 29 27 26 26 28 30 29 31 28 19 23 19 24 29 26 13 23
2 3 6 3 2 2 8 12 20 17 23 19 27 26 27 21 16 13 16 19 22 25 28 28 27 23 21 21 23 24 25 25 27 27 24 25 27 30 30 31 29 21 20 20 22 23 23 29 26
3 3 6 6 2 3 6 17 20 4 6 15 21 20 19 15 12 16 18 21 25 27 28 28 25 22 20 20 21 22 24 25 26 24 20 20 25 29 30 29 30 29 22 17 21 28 36 31 30
4 5 3 3 7 2 8 8 5 4 3 2 1 11 12 14 17 19 21 24 25 27 27 24 22 21 20 20 21 22 23 23 24 18 15 15 18 26 26 29 30 29 28 21 21 25 36 35 44
2 2 2 1 4 3 4 6 7 4 7 4 7 11 12 11 13 18 23 25 25 24 24 23 21 19 19 19 20 21 22 22 21 20 14 16 15 21 28 27 30 29 29 29 23 22 20 21 36
3 1 1 3 3 4 1 3 8 3 7 7 8 12 11 9 15 22 22 20 20 22 23 22 21 20 18 18 19 21 22 20 21 18 16 16 14 19 29 28 28 24 35 29 28 23 23 23 19
3 4 4 3 3 3 4 3 7 4 6 1 2 10 8 13 18 17 15 17 21 20 20 20 19 17 17 17 18 19 21 21 20 17 17 18 17 12 25 26 26 26 26 33 35 28 24 24 25
4 4 3 5 4 5 2 1 11 6 6 6 7 10 9 14 17 14 16 18 19 19 19 18 17 17 16 17 16 17 18 19 19 17 19 19 19 14 21 24 23 22 24 31 29 30 27 24 27
3 5 5 5 2 5 3 6 6 5 3 5 6 8 11 15 13 14 16 17 19 19 18 17 16 16 16 16 15 14 15 16 16 18 18 15 18 20 13 17 21 22 22 24 27 28 40 31 27
3 1 2 6 1 2 3 7 9 2 5 6 9 10 14 15 13 15 15 16 18 17 16 16 16 15 15 14 14 12 12 12 13 15 15 13 19 26 20 17 16 15 20 21 24 25 30 28 27
1 3 2 3 1 5 5 6 5 5 4 5 7 12 15 12 12 13 14 17 15 15 15 15 15 15 14 13 12 9 8 8 9 11 12 11 12 14 16 16 14 15 15 17 19 20 20 23 28
1 1 3 3 3 4 3 7 7 6 6 6 8 12 12 11 11 13 14 13 13 13 13 13 13 12 10 10 9 6 4 4 6 9 7 8 9 8 7 11 11 13 13 15 13 13 16 19 20
1 5 4 4 5 1 3 8 3 5 5 8 15 13 9 8 12 12 12 11 11 10 11 11 11 10 9 8 6 4 2 2 4 4 6 8 9 8 9 10 11 11 14 12 12 13 16 17 17
Wind_Direction
143 152 150 142 69 67 252 246 321 102 76 94 87 91 113 63 45 181 109 62 11 309 326 348 1 2 349 346 294 303 288 231 227 241 253 249 239 216 211 207 207 212 209 214 207 203 201 195 192
151 159 160 124 103 116 259 278 135 227 146 112 95 90 68 82 94 139 199 21 351 324 328 341 347 347 345 326 324 283 298 272 244 234 241 240 240 228 210 214 209 211 211 208 203 203 198 194 196
157 161 143 116 126 187 197 195 175 148 94 103 88 72 97 114 117 134 123 170 283 298 316 325 326 334 329 328 311 291 278 283 259 253 236 234 234 231 221 217 211 206 208 207 206 204 200 198 202
157 134 77 107 212 242 199 177 166 122 69 55 114 68 97 120 164 165 189 235 263 287 302 311 314 317 318 318 314 295 267 272 274 258 251 237 231 231 225 221 218 211 210 208 206 204 200 202 207
134 105 73 119 248 195 65 147 198 121 120 153 120 162 142 159 168 197 232 269 291 304 306 309 313 312 309 305 303 301 286 274 266 266 261 247 231 226 223 224 223 219 216 212 211 209 210 210 213
106 100 83 211 241 124 67 162 152 122 150 153 152 135 155 176 200 223 261 293 304 308 308 309 310 311 310 306 297 294 294 282 274 267 263 258 253 231 225 223 225 224 222 220 218 217 219 223 220
115 92 202 211 225 176 187 146 162 169 144 225 146 122 186 196 213 229 266 286 295 301 302 303 303 301 299 296 293 287 285 285 281 272 259 259 253 246 231 228 225 226 226 225 226 227 228 222 224
109 94 225 240 206 214 169 157 162 174 220 160 197 193 220 214 232 254 270 280 287 291 296 303 303 295 292 291 287 282 278 278 279 278 273 253 253 255 242 231 229 228 226 227 229 232 228 227 227
137 63 247 247 168 166 136 126 191 244 190 205 220 236 222 211 240 261 273 280 288 295 300 302 302 304 301 293 287 283 275 272 272 272 271 270 253 249 247 242 232 233 231 227 227 228 224 229 230
113 137 220 163 128 147 142 176 236 246 203 220 203 194 206 226 248 266 275 283 289 296 299 301 305 309 309 305 298 288 283 274 268 269 271 265 262 251 246 249 238 234 230 234 228 227 224 220 225
167 206 207 192 170 171 207 249 224 223 249 231 234 228 225 243 265 282 292 297 302 302 302 306 309 311 310 305 302 296 287 280 271 265 266 268 262 258 251 244 245 238 236 233 234 231 227 222 220
237 247 249 182 183 186 212 223 260 229 242 255 261 255 242 256 274 283 289 296 299 304 310 310 311 312 310 310 305 297 289 281 276 266 260 264 262 258 251 248 244 247 239 236 235 234 232 229 225
209 284 278 242 263 258 245 229 233 253 255 265 252 258 249 255 269 282 292 298 304 303 305 308 309 310 308 304 305 300 290 282 274 270 259 259 259 260 255 250 243 246 248 243 237 237 234 235 232
261 279 276 278 274 239 223 278 189 260 227 229 240 247 251 261 272 280 288 296 303 306 308 304 305 306 304 301 300 297 293 285 277 267 262 252 256 253 254 248 250 247 249 247 240 236 232 231 229
303 317 316 237 214 209 101 294 229 254 244 211 219 241 250 259 267 275 282 291 302 308 310 310 309 305 300 296 295 295 291 286 280 272 263 253 250 250 247 247 246 253 256 247 241 232 230 225 225
322 81 336 15 143 199 132 264 281 234 216 234 236 242 245 248 256 262 267 279 289 295 301 307 308 305 301 295 292 293 292 285 278 276 263 256 249 244 246 244 242 251 260 239 243 226 224 213 210
351 245 216 303 190 142 192 267 255 226 223 232 230 237 242 231 238 248 262 277 290 301 309 313 311 308 303 297 292 289 286 286 282 273 263 254 250 244 240 241 240 239 248 246 222 193 183 204 194
196 234 249 239 222 211 253 261 273 269 238 234 237 244 239 230 229 244 265 282 291 300 312 314 312 308 302 296 294 292 284 281 281 272 261 257 251 245 237 237 236 237 242 251 233 223 221 185 179
143 228 243 248 344 273 249 274 277 279 256 245 243 247 242 227 226 251 273 286 296 306 311 311 309 305 302 297 295 291 289 283 279 270 258 257 252 245 238 230 229 230 229 234 211 189 188 179 206
184 256 263 282 11 345 302 292 286 281 248 253 246 241 215 204 233 259 277 291 298 305 310 308 306 303 301 297 293 292 290 283 283 268 264 262 257 243 238 229 229 234 223 226 227 207 203 195 198
208 208 240 238 331 263 311 294 330 261 252 288 260 207 194 218 246 268 284 294 300 304 305 304 306 305 303 300 298 290 287 282 279 265 258 243 270 244 240 230 228 230 220 225 226 226 207 192 196
281 90 79 17 46 268 43 282 293 274 277 221 204 189 206 234 269 290 296 292 297 302 304 305 304 299 297 297 296 292 290 287 274 256 247 238 264 241 235 230 229 225 217 217 230 218 226 200 207
209 94 193 135 102 42 4 61 270 358 283 255 224 204 212 256 292 294 288 293 300 302 304 305 303 297 291 294 295 291 284 281 277 266 257 252 252 229 228 227 230 226 226 225 227 223 214 225 222
116 77 54 58 89 12 234 135 277 204 212 152 118 182 229 289 299 294 286 294 300 301 302 305 303 298 294 294 294 287 281 276 273 267 257 272 250 237 218 219 230 225 217 227 239 230 226 220 224
78 69 323 349 7 228 245 354 250 264 224 200 191 219 281 300 304 293 297 302 303 309 311 310 306 304 302 298 294 287 278 272 271 260 254 263 268 260 207 224 235 229 223 222 234 227 229 227 233
174 155 161 226 244 273 347 237 253 222 261 223 250 285 299 304 294 301 307 307 314 316 314 313 312 312 310 303 296 288 276 269 263 255 253 262 267 277 223 230 242 231 230 228 225 232 227 238 235
173 198 149 100 70 27 233 283 289 233 290 286 279 286 299 308 304 311 310 314 316 315 319 321 318 316 316 309 300 290 278 268 258 252 249 250 253 254 259 245 235 229 223 223 224 220 219 229 233
124 152 68 13 16 292 287 285 243 303 282 309 295 291 306 305 307 306 310 316 318 320 324 323 320 322 321 318 306 299 288 265 247 235 240 249 254 245 243 238 235 230 222 220 217 218 216 225 229
85 255 59 114 126 180 298 269 219 218 217 247 278 307 307 305 301 308 317 320 318 328 329 332 327 327 328 328 317 306 290 251 231 213 223 244 243 235 222 238 222 213 224 213 211 216 217 217 224
228 196 148 122 255 196 147 273 201 216 232 254 290 307 308 302 301 314 324 325 334 336 343 344 345 344 344 343 336 324 284 217 207 205 216 224 223 236 248 235 229 202 202 204 201 207 212 209 208